Sitka, AK

6:11 PM AKST on January 20, 2018 (GMT -0900)
Sitka Rocky Gutierrez

Weather History for PASI - May, 2014

Change the Weather History Date:

Thursday, May 8, 2014

  Actual Average Record
Temperature  
Mean Temperature 50 °F -  
Max Temperature 57 °F 51 °F 69 °F (2005)
Min Temperature 44 °F 40 °F 33 °F (1971)
Degree Days  
Heating Degree Days 14    
Moisture  
Dew Point 42 °F    
Average Humidity 76    
Maximum Humidity 93    
Minimum Humidity 53    
Precipitation  
Precipitation 0.05 in - - ()
Sea Level Pressure  
Sea Level Pressure 29.70 in    
Wind  
Wind Speed 4 mph (NW)    
Max Wind Speed 8 mph    
Max Gust Speed -    
Visibility 10 miles    
Events Rain    
Averages and records for this station are not official NWS values.
T = Trace of Precipitation, MM = Missing Value Source: NWS Daily Summary

Daily Weather History Graph

Daily Weather History Graph

Search for Another Location

Airport or City:

Trip Planner

Search our weather history database for the weather conditions in past years. The results will help you decide how hot, cold, wet, or windy it might be!

Date:

Astronomy

May. 08, 2014 Rise Set
Actual Time 4:56 AM AKDT 9:00 PM AKDT
Civil Twilight 4:07 AM AKDT 9:50 PM AKDT
Nautical Twilight 2:53 AM AKDT 11:05 PM AKDT
Astronomical Twilight 1:30 AM AKDT 12:25 AM AKDT
Moon 1:57 PM AKDT (5/8) 2:47 AM AKDT (5/8)
Length of Visible Light 17h 42m
Length of Day
16h 03m
Waxing Gibbous, 66% of the Moon is Illuminated
May 8
Waxing Gibbous
May 14
Full
May 21
Last Quarter
May 28
New
Jun 5
First Quarter

Hourly Weather History & Observations

Time (AKDT) Temp. Windchill Dew Point Humidity Pressure Visibility Wind Dir Wind Speed Gust Speed Precip Events Conditions
12:53 AM 48.0 °F - 39.9 °F 74% 29.76 in 10.0 mi SW 4.6 mph - 0.00 in   Overcast
1:53 AM 46.9 °F - 41.0 °F 80% 29.76 in 10.0 mi Calm Calm - 0.00 in Rain Light Rain
2:53 AM 46.0 °F 43.1 °F 42.1 °F 86% 29.74 in 10.0 mi SW 5.8 mph - 0.01 in Rain Light Rain
3:53 AM 46.0 °F - 42.1 °F 86% 29.73 in 10.0 mi Calm Calm - 0.01 in Rain Light Rain
4:53 AM 46.0 °F 42.5 °F 43.0 °F 89% 29.72 in 9.0 mi NW 6.9 mph - 0.01 in Rain Light Rain
5:53 AM 46.0 °F 43.1 °F 43.0 °F 89% 29.70 in 10.0 mi NNW 5.8 mph - 0.00 in   Overcast
6:04 AM 45.0 °F 42.6 °F 43.0 °F 93% 29.70 in 9.0 mi NNW 4.6 mph - 0.00 in Rain Light Rain
6:53 AM 44.6 °F - 42.8 °F 93% 29.70 in 10.0 mi Calm Calm - N/A   Overcast
7:53 AM 46.0 °F 43.1 °F 43.0 °F 89% 29.69 in 10.0 mi NNW 5.8 mph - N/A   Overcast
8:53 AM 48.0 °F - 43.0 °F 83% 29.69 in 10.0 mi North 5.8 mph - N/A   Overcast
9:53 AM 48.0 °F - 44.1 °F 86% 29.69 in 10.0 mi NNW 8.1 mph - 0.01 in Rain Light Rain
10:53 AM 48.9 °F - 44.1 °F 83% 29.69 in 10.0 mi NNW 8.1 mph - 0.01 in Rain Light Rain
11:53 AM 51.1 °F - 43.0 °F 74% 29.69 in 10.0 mi North 5.8 mph - 0.00 in Rain Light Rain
12:53 PM 51.8 °F - 42.8 °F 71% 29.68 in 10.0 mi NW 8.1 mph - N/A Rain Light Rain
1:53 PM 53.1 °F - 42.1 °F 66% 29.68 in 10.0 mi West 3.5 mph - 0.00 in   Overcast
2:53 PM 55.9 °F - 39.0 °F 53% 29.68 in 10.0 mi ESE 6.9 mph - N/A   Overcast
3:53 PM 55.0 °F - 41.0 °F 59% 29.68 in 10.0 mi West 3.5 mph - N/A   Overcast
4:53 PM 57.0 °F - 41.0 °F 55% 29.67 in 10.0 mi Calm Calm - N/A   Mostly Cloudy
5:53 PM 55.0 °F - 39.0 °F 55% 29.67 in 10.0 mi WNW 3.5 mph - N/A   Overcast
6:53 PM 55.0 °F - 41.0 °F 59% 29.67 in 10.0 mi WNW 3.5 mph - N/A   Mostly Cloudy
7:53 PM 52.0 °F - 45.0 °F 77% 29.67 in 10.0 mi WNW 6.9 mph - N/A   Mostly Cloudy
8:53 PM 52.0 °F - 44.1 °F 74% 29.68 in 10.0 mi NNW 8.1 mph - N/A   Overcast
9:53 PM 51.1 °F - 45.0 °F 80% 29.68 in 10.0 mi WNW 4.6 mph - N/A   Overcast
10:53 PM 52.0 °F - 44.1 °F 74% 29.69 in 10.0 mi Calm Calm - N/A   Overcast
11:53 PM 50.0 °F - 44.1 °F 80% 29.69 in 10.0 mi Calm Calm - N/A   Partly Cloudy